UAL1157 PHNL-KLAX

Flight info

Callsign UAL1157
Flight time 4h 39m
Altitude 37000
Route MKK5 KOLEA CLUTS R465 CIVIT R585 GITLE/N0474F390 ADUMM GALIP R585 AUDIA SNAXX RYDRR2
Aircraft B77W/H-SDE1E2E3FGHIJ2J3J4J5M1RWXY/LB1D1

Departure

Time 2026-04-22 22:11
Airport Daniel K. Inouye International Airport (PHNL)

Arrival

Time 2026-04-23 02:51
Airport Los Angeles International Airport (KLAX)
Time Latitude Longitude Altitude Speed Heading
2026-04-22 21:31 21.33000 -157.91753 29 ft 0 kts 99°
2026-04-22 21:55 21.33003 -157.91773 29 ft 3 kts 99°
2026-04-22 21:55 21.33004 -157.91797 29 ft 4 kts 64°
2026-04-22 21:56 21.32987 -157.91817 29 ft 4 kts 28°
2026-04-22 21:56 21.32962 -157.91827 29 ft 4 kts 12°
2026-04-22 21:56 21.32937 -157.91832 29 ft 4 kts 10°
2026-04-22 21:56 21.32910 -157.91837 28 ft 4 kts
2026-04-22 21:57 21.32883 -157.91841 28 ft 4 kts
2026-04-22 21:57 21.32856 -157.91846 29 ft 4 kts
2026-04-22 21:57 21.32831 -157.91851 28 ft 4 kts
2026-04-22 21:57 21.32805 -157.91852 28 ft 4 kts 347°
2026-04-22 21:58 21.32781 -157.91841 29 ft 4 kts 310°
2026-04-22 21:58 21.32772 -157.91818 29 ft 4 kts 269°
2026-04-22 21:58 21.32773 -157.91789 29 ft 4 kts 269°
2026-04-22 21:58 21.32773 -157.91783 29 ft 0 kts 269°
2026-04-22 22:01 21.32772 -157.91816 29 ft 12 kts 269°
2026-04-22 22:02 21.32774 -157.91945 29 ft 21 kts 270°
2026-04-22 22:02 21.32774 -157.92098 29 ft 21 kts 270°
2026-04-22 22:02 21.32773 -157.92252 29 ft 21 kts 270°
2026-04-22 22:02 21.32773 -157.92403 29 ft 21 kts 270°
2026-04-22 22:03 21.32775 -157.92558 29 ft 21 kts 270°
2026-04-22 22:03 21.32774 -157.92692 29 ft 16 kts 265°
2026-04-22 22:03 21.32746 -157.92805 29 ft 16 kts 258°
2026-04-22 22:03 21.32744 -157.92923 29 ft 16 kts 269°
2026-04-22 22:04 21.32743 -157.93051 29 ft 19 kts 270°
2026-04-22 22:04 21.32743 -157.93207 29 ft 23 kts 270°
2026-04-22 22:04 21.32742 -157.93389 29 ft 26 kts 269°
2026-04-22 22:04 21.32741 -157.93593 29 ft 28 kts 271°
2026-04-22 22:05 21.32742 -157.93802 29 ft 28 kts 270°
2026-04-22 22:05 21.32743 -157.93954 29 ft 13 kts 270°
2026-04-22 22:05 21.32725 -157.94050 29 ft 13 kts 240°
2026-04-22 22:05 21.32653 -157.94113 29 ft 13 kts 211°
2026-04-22 22:06 21.32570 -157.94164 29 ft 15 kts 209°
2026-04-22 22:06 21.32472 -157.94221 29 ft 17 kts 208°
2026-04-22 22:06 21.32361 -157.94288 29 ft 19 kts 209°
2026-04-22 22:06 21.32236 -157.94362 29 ft 21 kts 209°
2026-04-22 22:07 21.32105 -157.94440 29 ft 22 kts 209°
2026-04-22 22:07 21.31975 -157.94518 29 ft 22 kts 209°
2026-04-22 22:07 21.31843 -157.94597 29 ft 22 kts 209°
2026-04-22 22:07 21.31704 -157.94658 29 ft 22 kts 187°
2026-04-22 22:08 21.31554 -157.94647 29 ft 23 kts 173°
2026-04-22 22:08 21.31392 -157.94626 29 ft 23 kts 173°
2026-04-22 22:08 21.31231 -157.94605 29 ft 23 kts 173°
2026-04-22 22:08 21.31072 -157.94585 29 ft 23 kts 173°
2026-04-22 22:09 21.30927 -157.94572 29 ft 17 kts 179°
2026-04-22 22:09 21.30821 -157.94572 29 ft 10 kts 180°
2026-04-22 22:09 21.30781 -157.94571 29 ft 5 kts 180°
2026-04-22 22:09 21.30743 -157.94571 29 ft 6 kts 180°
2026-04-22 22:10 21.30693 -157.94566 28 ft 8 kts 156°
2026-04-22 22:10 21.30679 -157.94524 30 ft 6 kts 93°
2026-04-22 22:10 21.30679 -157.94373 33 ft 45 kts 89°
2026-04-22 22:10 21.30680 -157.93745 30 ft 122 kts 89°
2026-04-22 22:11 21.30676 -157.92602 87 ft 176 kts 91°
2026-04-22 22:11 21.30708 -157.91262 673 ft 183 kts 93°
2026-04-22 22:11 21.30430 -157.89962 1413 ft 181 kts 120°
2026-04-22 22:11 21.29451 -157.89066 1916 ft 200 kts 155°
2026-04-22 22:12 21.28040 -157.88649 2170 ft 227 kts 164°
2026-04-22 22:12 21.26396 -157.88230 2388 ft 256 kts 164°
2026-04-22 22:12 21.24628 -157.87777 3091 ft 265 kts 164°
2026-04-22 22:12 21.22876 -157.87189 3826 ft 266 kts 150°
2026-04-22 22:13 21.21493 -157.85879 4532 ft 269 kts 122°
2026-04-22 22:13 21.20798 -157.84022 5301 ft 271 kts 102°
2026-04-22 22:13 21.20415 -157.82025 6075 ft 276 kts 99°
2026-04-22 22:13 21.20045 -157.79986 6837 ft 281 kts 99°
2026-04-22 22:14 21.19714 -157.77913 7496 ft 283 kts 91°
2026-04-22 22:14 21.20114 -157.75857 8056 ft 285 kts 60°
2026-04-22 22:14 21.21173 -157.74047 8692 ft 290 kts 55°
2026-04-22 22:14 21.22301 -157.72234 9419 ft 295 kts 55°
2026-04-22 22:15 21.23433 -157.70386 10166 ft 298 kts 56°
2026-04-22 22:15 21.24582 -157.68472 10580 ft 316 kts 56°
2026-04-22 22:15 21.25789 -157.66424 10766 ft 341 kts 57°
2026-04-22 22:15 21.27089 -157.64180 10945 ft 366 kts 57°
2026-04-22 22:16 21.28441 -157.61812 11465 ft 377 kts 58°
2026-04-22 22:16 21.29811 -157.59386 12252 ft 383 kts 58°
2026-04-22 22:16 21.31181 -157.56941 13303 ft 381 kts 58°
2026-04-22 22:16 21.32550 -157.54490 14199 ft 385 kts 58°
2026-04-22 22:17 21.33935 -157.52001 14891 ft 392 kts 58°
2026-04-22 22:17 21.35346 -157.49466 15558 ft 399 kts 58°
2026-04-22 22:17 21.36772 -157.46899 15995 ft 403 kts 58°
2026-04-22 22:17 21.38212 -157.44306 15971 ft 405 kts 58°
2026-04-22 22:18 21.39654 -157.41707 16006 ft 405 kts 58°
2026-04-22 22:18 21.41105 -157.39092 16629 ft 411 kts 58°
2026-04-22 22:18 21.42571 -157.36447 17461 ft 413 kts 57°
2026-04-22 22:18 21.44046 -157.33785 18282 ft 417 kts 57°
2026-04-22 22:19 21.45521 -157.31124 18915 ft 423 kts 57°
2026-04-22 22:19 21.47039 -157.28383 19521 ft 428 kts 57°
2026-04-22 22:19 21.48573 -157.25611 20135 ft 434 kts 57°
2026-04-22 22:19 21.50128 -157.22801 20775 ft 439 kts 57°
2026-04-22 22:20 21.51691 -157.19964 21389 ft 444 kts 58°
2026-04-22 22:20 21.53238 -157.17067 21983 ft 449 kts 59°
2026-04-22 22:20 21.54771 -157.14169 22546 ft 454 kts 59°
2026-04-22 22:20 21.56352 -157.11206 23132 ft 459 kts 58°
2026-04-22 22:21 21.57964 -157.08223 23679 ft 464 kts 58°
2026-04-22 22:21 21.59615 -157.05198 24146 ft 468 kts 58°
2026-04-22 22:21 21.61279 -157.02172 24634 ft 471 kts 58°
2026-04-22 22:21 21.62936 -156.99169 25133 ft 473 kts 58°
2026-04-22 22:22 21.64623 -156.96113 25629 ft 476 kts 58°
2026-04-22 22:22 21.66317 -156.93046 26101 ft 479 kts 58°
2026-04-22 22:22 21.68026 -156.89949 26570 ft 482 kts 58°
2026-04-22 22:22 21.69744 -156.86832 27030 ft 485 kts 58°
2026-04-22 22:23 21.71471 -156.83696 27489 ft 488 kts 58°
2026-04-22 22:23 21.73201 -156.80552 27921 ft 492 kts 58°
2026-04-22 22:23 21.74950 -156.77372 28296 ft 496 kts 58°
2026-04-22 22:23 21.76711 -156.74166 28683 ft 499 kts 58°
2026-04-22 22:24 21.78484 -156.70938 29095 ft 501 kts 58°
2026-04-22 22:24 21.80260 -156.67702 29469 ft 504 kts 58°
2026-04-22 22:24 21.82046 -156.64445 29822 ft 506 kts 58°
2026-04-22 22:24 21.83840 -156.61172 30156 ft 509 kts 58°
2026-04-22 22:25 21.85644 -156.57879 30503 ft 510 kts 58°
2026-04-22 22:25 21.87421 -156.54632 30904 ft 509 kts 58°
2026-04-22 22:25 21.89214 -156.51356 31317 ft 508 kts 58°
2026-04-22 22:25 21.91007 -156.48076 31699 ft 507 kts 58°
2026-04-22 22:26 21.92797 -156.44800 32055 ft 508 kts 58°
2026-04-22 22:26 21.94586 -156.41525 32430 ft 508 kts 57°
2026-04-22 22:26 21.96377 -156.38244 32810 ft 507 kts 57°
2026-04-22 22:26 21.98165 -156.34965 33163 ft 507 kts 57°
2026-04-22 22:27 21.99956 -156.31680 33530 ft 507 kts 57°
2026-04-22 22:27 22.01738 -156.28410 33898 ft 507 kts 57°
2026-04-22 22:27 22.03522 -156.25134 34242 ft 506 kts 57°
2026-04-22 22:27 22.05289 -156.21885 34542 ft 506 kts 57°
2026-04-22 22:28 22.07070 -156.18611 34832 ft 506 kts 57°
2026-04-22 22:28 22.08849 -156.15337 35167 ft 504 kts 57°
2026-04-22 22:28 22.10618 -156.12079 35506 ft 503 kts 57°
2026-04-22 22:28 22.12382 -156.08829 35822 ft 502 kts 57°
2026-04-22 22:29 22.14145 -156.05578 36130 ft 501 kts 56°
2026-04-22 22:29 22.15884 -156.02371 36426 ft 500 kts 56°
2026-04-22 22:29 22.17638 -155.99133 36723 ft 499 kts 56°
2026-04-22 22:29 22.19396 -155.95886 37018 ft 499 kts 56°
2026-04-22 22:30 22.21150 -155.92647 37083 ft 502 kts 56°
2026-04-22 22:30 22.24665 -155.86148 37116 ft 502 kts 56°
2026-04-22 22:31 22.28159 -155.79673 37118 ft 496 kts 56°
2026-04-22 22:31 22.31629 -155.73238 37129 ft 495 kts 56°
2026-04-22 22:32 22.35093 -155.66807 37131 ft 494 kts 56°
2026-04-22 22:32 22.38552 -155.60380 37135 ft 495 kts 56°
2026-04-22 22:33 22.42014 -155.53938 37128 ft 496 kts 56°
2026-04-22 22:33 22.45487 -155.47466 37138 ft 498 kts 56°
2026-04-22 22:34 22.48959 -155.40988 37134 ft 500 kts 56°
2026-04-22 22:34 22.52442 -155.34479 37134 ft 501 kts 56°
2026-04-22 22:35 22.55907 -155.27996 37132 ft 501 kts 56°
2026-04-22 22:35 22.59475 -155.21530 37128 ft 499 kts 51°
2026-04-22 22:36 22.63718 -155.15598 37130 ft 495 kts 47°
2026-04-22 22:36 22.68022 -155.09826 37135 ft 495 kts 47°
2026-04-22 22:37 22.72316 -155.03999 37130 ft 495 kts 47°
2026-04-22 22:37 22.76588 -154.98145 37145 ft 495 kts 47°
2026-04-22 22:38 22.80853 -154.92284 37138 ft 494 kts 47°
2026-04-22 22:38 22.85115 -154.86425 37132 ft 494 kts 47°
2026-04-22 22:39 22.89334 -154.80621 37135 ft 493 kts 47°
2026-04-22 22:39 22.93579 -154.74773 37137 ft 493 kts 47°
2026-04-22 22:40 22.97822 -154.68923 37134 ft 493 kts 47°
2026-04-22 22:40 23.01933 -154.62959 37134 ft 495 kts 51°
2026-04-22 22:41 23.05746 -154.56703 37140 ft 496 kts 52°
2026-04-22 22:41 23.09502 -154.50464 37138 ft 497 kts 52°
2026-04-22 22:42 23.13297 -154.44197 37129 ft 497 kts 51°
2026-04-22 22:42 23.17108 -154.37930 37125 ft 497 kts 51°
2026-04-22 22:43 23.20930 -154.31643 37145 ft 497 kts 51°
2026-04-22 22:43 23.24747 -154.25355 37140 ft 497 kts 51°
2026-04-22 22:44 23.28530 -154.19114 37135 ft 497 kts 51°
2026-04-22 22:44 23.32329 -154.12838 37133 ft 497 kts 51°
2026-04-22 22:45 23.36130 -154.06551 37150 ft 497 kts 51°
2026-04-22 22:45 23.39927 -154.00263 37134 ft 497 kts 51°
2026-04-22 22:46 23.43721 -153.93972 37133 ft 497 kts 51°
2026-04-22 22:46 23.47511 -153.87680 37132 ft 497 kts 51°
2026-04-22 22:47 23.51289 -153.81400 37133 ft 497 kts 51°
2026-04-22 22:47 23.55081 -153.75089 37133 ft 497 kts 51°
2026-04-22 22:48 23.58839 -153.68827 37147 ft 497 kts 51°
2026-04-22 22:48 23.62624 -153.62511 37138 ft 497 kts 51°
2026-04-22 22:49 23.66401 -153.56201 37132 ft 497 kts 51°
2026-04-22 22:49 23.69563 -153.50911 37133 ft 497 kts 51°
2026-04-22 22:50 23.73312 -153.44632 37137 ft 497 kts 51°
2026-04-22 22:50 23.77084 -153.38308 37130 ft 496 kts 51°
2026-04-22 22:51 23.80858 -153.31990 37139 ft 496 kts 51°
2026-04-22 22:51 23.84639 -153.25678 37124 ft 496 kts 51°
2026-04-22 22:52 23.88416 -153.19366 37135 ft 496 kts 51°
2026-04-22 22:52 23.92196 -153.13035 37128 ft 496 kts 51°
2026-04-22 22:53 23.95964 -153.06714 37129 ft 496 kts 51°
2026-04-22 22:53 23.99706 -153.00429 37142 ft 496 kts 51°
2026-04-22 22:54 24.03476 -152.94088 37135 ft 496 kts 51°
2026-04-22 22:54 24.07238 -152.87753 37129 ft 496 kts 51°
2026-04-22 22:55 24.10986 -152.81434 37141 ft 496 kts 51°
2026-04-22 22:55 24.16599 -152.71956 37129 ft 496 kts 51°
2026-04-22 22:56 24.20371 -152.65575 37134 ft 496 kts 51°
2026-04-22 22:56 24.24092 -152.59271 37143 ft 496 kts 51°
2026-04-22 22:57 24.27861 -152.52880 37132 ft 496 kts 51°
2026-04-22 22:57 24.31584 -152.46559 37133 ft 496 kts 51°
2026-04-22 22:58 24.35325 -152.40198 37130 ft 496 kts 51°
2026-04-22 22:58 24.39060 -152.33839 37131 ft 496 kts 51°
2026-04-22 22:59 24.42797 -152.27468 37131 ft 496 kts 51°
2026-04-22 22:59 24.46531 -152.21094 37143 ft 496 kts 51°
2026-04-22 23:00 24.50263 -152.14714 37132 ft 496 kts 51°
2026-04-22 23:00 24.53966 -152.08377 37134 ft 496 kts 51°
2026-04-22 23:01 24.57692 -152.01991 37133 ft 496 kts 51°
2026-04-22 23:01 24.61417 -151.95600 37130 ft 496 kts 51°
2026-04-22 23:02 24.65136 -151.89209 37150 ft 496 kts 51°
2026-04-22 23:02 24.68861 -151.82801 37132 ft 497 kts 51°
2026-04-22 23:03 24.72581 -151.76394 37128 ft 497 kts 51°
2026-04-22 23:03 24.76279 -151.70015 37129 ft 497 kts 51°
2026-04-22 23:04 24.79994 -151.63598 37131 ft 497 kts 51°
2026-04-22 23:04 24.83715 -151.57161 37131 ft 497 kts 51°
2026-04-22 23:05 24.87432 -151.50723 37129 ft 498 kts 51°
2026-04-22 23:05 24.91147 -151.44282 37133 ft 498 kts 51°
2026-04-22 23:06 24.94838 -151.37871 37128 ft 499 kts 51°
2026-04-22 23:06 24.98555 -151.31408 37139 ft 499 kts 51°
2026-04-22 23:07 25.02270 -151.24938 37130 ft 499 kts 51°
2026-04-22 23:07 25.05987 -151.18455 37141 ft 499 kts 51°
2026-04-22 23:08 25.09699 -151.11975 37129 ft 500 kts 51°
2026-04-22 23:08 25.13410 -151.05487 37130 ft 500 kts 51°
2026-04-22 23:09 25.17102 -150.99022 37134 ft 500 kts 51°
2026-04-22 23:09 25.20818 -150.92507 37128 ft 501 kts 51°
2026-04-22 23:10 25.24506 -150.86032 37133 ft 501 kts 51°
2026-04-22 23:10 25.28215 -150.79511 37126 ft 501 kts 51°
2026-04-22 23:11 25.31919 -150.72990 37132 ft 500 kts 51°
2026-04-22 23:11 25.35616 -150.66471 37125 ft 500 kts 51°
2026-04-22 23:12 25.39310 -150.59949 37126 ft 500 kts 51°
2026-04-22 23:12 25.42997 -150.53431 37126 ft 499 kts 51°
2026-04-22 23:13 25.46681 -150.46910 37136 ft 500 kts 51°
2026-04-22 23:13 25.50369 -150.40373 37132 ft 500 kts 51°
2026-04-22 23:14 25.54028 -150.33877 37125 ft 501 kts 51°
2026-04-22 23:14 25.57715 -150.27321 37125 ft 501 kts 51°
2026-04-22 23:15 25.61400 -150.20762 37126 ft 501 kts 51°
2026-04-22 23:15 25.65088 -150.14186 37145 ft 502 kts 51°
2026-04-22 23:16 25.68773 -150.07609 37136 ft 503 kts 51°
2026-04-22 23:16 25.72458 -150.01019 37129 ft 503 kts 51°
2026-04-22 23:17 25.76142 -149.94422 37122 ft 503 kts 51°
2026-04-22 23:17 25.79829 -149.87811 37136 ft 503 kts 51°
2026-04-22 23:18 25.83511 -149.81201 37129 ft 504 kts 51°
2026-04-22 23:18 25.87169 -149.74624 37124 ft 504 kts 51°
2026-04-22 23:19 25.90852 -149.67991 37127 ft 504 kts 51°
2026-04-22 23:19 25.94537 -149.61345 37126 ft 505 kts 51°
2026-04-22 23:20 25.98216 -149.54701 37126 ft 505 kts 51°
2026-04-22 23:20 26.01907 -149.48027 37123 ft 505 kts 51°
2026-04-22 23:21 26.05581 -149.41372 37130 ft 505 kts 51°
2026-04-22 23:21 26.09232 -149.34749 37123 ft 505 kts 51°
2026-04-22 23:22 26.12908 -149.28073 37129 ft 506 kts 51°
2026-04-22 23:22 26.16578 -149.21395 37120 ft 506 kts 51°
2026-04-22 23:23 26.20249 -149.14707 37126 ft 506 kts 51°
2026-04-22 23:23 26.23918 -149.08014 37125 ft 506 kts 51°
2026-04-22 23:24 26.27585 -149.01314 37125 ft 506 kts 51°
2026-04-22 23:24 26.31226 -148.94651 37125 ft 506 kts 51°
2026-04-22 23:25 26.34887 -148.87940 37123 ft 506 kts 51°
2026-04-22 23:25 26.38544 -148.81229 37120 ft 506 kts 51°
2026-04-22 23:26 26.42201 -148.74508 37132 ft 507 kts 51°
2026-04-22 23:26 26.45860 -148.67772 37123 ft 507 kts 51°
2026-04-22 23:27 26.49500 -148.61061 37124 ft 507 kts 51°
2026-04-22 23:27 26.53152 -148.54318 37122 ft 507 kts 51°
2026-04-22 23:28 26.56798 -148.47576 37120 ft 507 kts 51°
2026-04-22 23:28 26.60446 -148.40821 37127 ft 508 kts 51°
2026-04-22 23:29 26.64094 -148.34056 37123 ft 508 kts 52°
2026-04-22 23:29 26.67743 -148.27276 37126 ft 508 kts 52°
2026-04-22 23:30 26.71362 -148.20543 37121 ft 508 kts 52°
2026-04-22 23:30 26.75011 -148.13744 37147 ft 509 kts 52°
2026-04-22 23:31 26.78653 -148.06948 37120 ft 509 kts 52°
2026-04-22 23:31 26.82305 -148.00122 37144 ft 509 kts 52°
2026-04-22 23:32 26.85944 -147.93310 37135 ft 509 kts 52°
2026-04-22 23:32 26.89557 -147.86538 37121 ft 510 kts 52°
2026-04-22 23:33 26.93191 -147.79715 37151 ft 510 kts 52°
2026-04-22 23:33 26.96823 -147.72884 37131 ft 510 kts 52°
2026-04-22 23:34 27.00460 -147.66034 37128 ft 511 kts 52°
2026-04-22 23:34 27.04094 -147.59179 37127 ft 511 kts 52°
2026-04-22 23:35 27.07725 -147.52319 37131 ft 511 kts 52°
2026-04-22 23:35 27.10743 -147.46607 37130 ft 511 kts 52°
2026-04-22 23:36 27.14363 -147.39747 37133 ft 511 kts 52°
2026-04-22 23:36 27.18579 -147.31745 37131 ft 512 kts 52°
2026-04-22 23:37 27.21590 -147.26020 37134 ft 512 kts 52°
2026-04-22 23:37 27.25070 -147.19019 37134 ft 516 kts 57°
2026-04-22 23:38 27.28208 -147.11747 37137 ft 518 kts 58°
2026-04-22 23:38 27.31307 -147.04434 37142 ft 518 kts 58°
2026-04-22 23:39 27.34431 -146.97108 37140 ft 518 kts 57°
2026-04-22 23:39 27.37567 -146.89796 37148 ft 519 kts 57°
2026-04-22 23:40 27.40708 -146.82474 37147 ft 520 kts 57°
2026-04-22 23:40 27.43848 -146.75139 37143 ft 519 kts 57°
2026-04-22 23:41 27.46976 -146.67814 37143 ft 519 kts 57°
2026-04-22 23:41 27.50100 -146.60484 37118 ft 519 kts 57°
2026-04-22 23:42 27.53195 -146.53208 37124 ft 517 kts 57°
2026-04-22 23:42 27.56295 -146.45909 37152 ft 516 kts 57°
2026-04-22 23:43 27.59394 -146.38602 37150 ft 516 kts 57°
2026-04-22 23:43 27.62487 -146.31295 37143 ft 516 kts 57°
2026-04-22 23:44 27.65585 -146.23965 37157 ft 519 kts 58°
2026-04-22 23:44 27.68689 -146.16607 37143 ft 520 kts 58°
2026-04-22 23:45 27.71789 -146.09237 37136 ft 519 kts 58°
2026-04-22 23:45 27.74882 -146.01873 37140 ft 520 kts 58°
2026-04-22 23:46 27.77967 -145.94515 37148 ft 517 kts 58°
2026-04-22 23:46 27.81014 -145.87235 37148 ft 515 kts 58°
2026-04-22 23:47 27.84069 -145.79925 37147 ft 514 kts 58°
2026-04-22 23:47 27.87126 -145.72598 37158 ft 514 kts 58°
2026-04-22 23:48 27.90180 -145.65268 37153 ft 516 kts 58°
2026-04-22 23:48 27.93235 -145.57915 37152 ft 517 kts 58°
2026-04-22 23:49 27.96294 -145.50540 37157 ft 518 kts 58°
2026-04-22 23:49 27.99352 -145.43156 37159 ft 519 kts 58°
2026-04-22 23:50 28.02392 -145.35797 37185 ft 519 kts 58°
2026-04-22 23:50 28.05453 -145.28378 37159 ft 520 kts 58°
2026-04-22 23:51 28.08514 -145.20941 37160 ft 520 kts 59°
2026-04-22 23:51 28.11570 -145.13505 37163 ft 520 kts 59°
2026-04-22 23:52 28.14619 -145.06070 37163 ft 520 kts 59°
2026-04-22 23:52 28.17662 -144.98637 37178 ft 520 kts 59°
2026-04-22 23:53 28.20700 -144.91202 37172 ft 520 kts 59°
2026-04-22 23:53 28.23718 -144.83804 37166 ft 520 kts 59°
2026-04-22 23:54 28.26749 -144.76360 37183 ft 520 kts 59°
2026-04-22 23:54 28.29787 -144.68886 37184 ft 525 kts 59°
2026-04-22 23:55 28.32838 -144.61361 37162 ft 523 kts 59°
2026-04-22 23:55 28.35861 -144.53885 37192 ft 519 kts 59°
2026-04-22 23:56 28.38872 -144.46429 37198 ft 518 kts 59°
2026-04-22 23:56 28.41875 -144.38984 37175 ft 519 kts 59°
2026-04-22 23:57 28.44875 -144.31533 37206 ft 517 kts 59°
2026-04-22 23:57 28.47856 -144.24114 37184 ft 519 kts 59°
2026-04-22 23:58 28.50841 -144.16672 37188 ft 521 kts 59°
2026-04-22 23:58 28.53850 -144.09153 37191 ft 523 kts 59°
2026-04-22 23:59 28.56866 -144.01599 37203 ft 525 kts 60°
2026-04-22 23:59 28.59891 -143.94009 37194 ft 527 kts 60°
2026-04-23 00:00 28.64422 -143.82607 37186 ft 527 kts 60°
2026-04-23 00:01 28.67432 -143.75013 37188 ft 525 kts 60°
2026-04-23 00:01 28.70430 -143.67438 37203 ft 523 kts 60°
2026-04-23 00:02 28.73401 -143.59919 37188 ft 524 kts 60°
2026-04-23 00:02 28.76383 -143.52357 37194 ft 523 kts 60°
2026-04-23 00:03 28.79356 -143.44801 37199 ft 522 kts 60°
2026-04-23 00:03 28.82325 -143.37241 37199 ft 522 kts 60°
2026-04-23 00:04 28.85292 -143.29673 37212 ft 523 kts 60°
2026-04-23 00:04 28.88260 -143.22085 37202 ft 524 kts 61°
2026-04-23 00:05 28.91232 -143.14471 37202 ft 525 kts 61°
2026-04-23 00:05 28.94203 -143.06843 37203 ft 526 kts 61°
2026-04-23 00:06 28.97155 -142.99249 37198 ft 526 kts 62°
2026-04-23 00:06 29.00128 -142.91586 37216 ft 527 kts 62°
2026-04-23 00:07 29.03090 -142.83935 37213 ft 527 kts 62°
2026-04-23 00:07 29.06052 -142.76269 37186 ft 526 kts 62°
2026-04-23 00:08 29.09003 -142.68617 37204 ft 525 kts 62°
2026-04-23 00:08 29.11926 -142.61020 37212 ft 525 kts 62°
2026-04-23 00:09 29.14861 -142.53379 37216 ft 524 kts 62°
2026-04-23 00:09 29.17789 -142.45738 37207 ft 523 kts 63°
2026-04-23 00:10 29.20706 -142.38110 37215 ft 522 kts 63°
2026-04-23 00:10 29.23615 -142.30491 37230 ft 522 kts 63°
2026-04-23 00:11 29.26521 -142.22864 37209 ft 522 kts 63°
2026-04-23 00:11 29.29400 -142.15287 37222 ft 522 kts 63°
2026-04-23 00:12 29.32298 -142.07650 37219 ft 522 kts 64°
2026-04-23 00:12 29.35193 -142.00001 37237 ft 523 kts 64°
2026-04-23 00:13 29.38090 -141.92334 37222 ft 524 kts 64°
2026-04-23 00:13 29.40986 -141.84650 37229 ft 525 kts 64°
2026-04-23 00:14 29.43884 -141.76946 37223 ft 526 kts 64°
2026-04-23 00:14 29.46787 -141.69214 37252 ft 527 kts 64°
2026-04-23 00:15 29.49687 -141.61473 37222 ft 528 kts 64°
2026-04-23 00:15 29.52569 -141.53763 37225 ft 528 kts 65°
2026-04-23 00:16 29.55465 -141.46000 37226 ft 528 kts 65°
2026-04-23 00:16 29.58353 -141.38240 37228 ft 528 kts 65°
2026-04-23 00:17 29.61236 -141.30478 37221 ft 527 kts 65°
2026-04-23 00:17 29.64108 -141.22727 37230 ft 526 kts 65°
2026-04-23 00:18 29.66972 -141.14985 37234 ft 525 kts 65°
2026-04-23 00:18 29.69824 -141.07256 37233 ft 524 kts 65°
2026-04-23 00:19 29.72651 -140.99581 37239 ft 524 kts 65°
2026-04-23 00:19 29.75494 -140.91845 37233 ft 524 kts 65°
2026-04-23 00:20 29.78330 -140.84109 37227 ft 524 kts 66°
2026-04-23 00:20 29.81164 -140.76363 37235 ft 525 kts 66°
2026-04-23 00:21 29.83994 -140.68613 37246 ft 525 kts 66°
2026-04-23 00:21 29.86808 -140.60889 37224 ft 526 kts 66°
2026-04-23 00:22 29.89635 -140.53111 37232 ft 525 kts 66°
2026-04-23 00:22 29.92452 -140.45343 37239 ft 525 kts 66°
2026-04-23 00:23 29.95265 -140.37566 37230 ft 525 kts 67°
2026-04-23 00:23 29.97917 -140.29716 37234 ft 525 kts 69°
2026-04-23 00:24 30.00445 -140.21874 37233 ft 524 kts 69°
2026-04-23 00:24 30.02576 -140.15273 37227 ft 524 kts 70°
2026-04-23 00:25 30.05140 -140.07390 37243 ft 525 kts 70°
2026-04-23 00:25 30.07704 -139.99534 37238 ft 525 kts 70°
2026-04-23 00:26 30.10276 -139.91641 37240 ft 525 kts 70°
2026-04-23 00:26 30.12847 -139.83730 37240 ft 526 kts 70°
2026-04-23 00:27 30.15395 -139.75863 37251 ft 526 kts 70°
2026-04-23 00:27 30.17960 -139.67925 37237 ft 526 kts 70°
2026-04-23 00:28 30.20517 -139.59994 37241 ft 526 kts 70°
2026-04-23 00:28 30.23069 -139.52060 37229 ft 526 kts 70°
2026-04-23 00:29 30.25617 -139.44120 37244 ft 526 kts 71°
2026-04-23 00:29 30.28157 -139.36182 37241 ft 526 kts 71°
2026-04-23 00:30 30.30679 -139.28284 37226 ft 526 kts 71°
2026-04-23 00:30 30.33207 -139.20348 37241 ft 525 kts 71°
2026-04-23 00:31 30.35733 -139.12401 37244 ft 526 kts 71°
2026-04-23 00:31 30.38253 -139.04450 37231 ft 526 kts 71°
2026-04-23 00:32 30.40769 -138.96494 37244 ft 525 kts 71°
2026-04-23 00:32 30.43278 -138.88543 37241 ft 525 kts 71°
2026-04-23 00:33 30.45768 -138.80631 37249 ft 526 kts 71°
2026-04-23 00:33 30.48271 -138.72658 37241 ft 526 kts 71°
2026-04-23 00:34 30.50769 -138.64681 37234 ft 526 kts 71°
2026-04-23 00:34 30.53261 -138.56705 37260 ft 526 kts 71°
2026-04-23 00:35 30.55750 -138.48717 37249 ft 526 kts 72°
2026-04-23 00:35 30.58235 -138.40725 37237 ft 526 kts 71°
2026-04-23 00:36 30.60714 -138.32730 37247 ft 526 kts 71°
2026-04-23 00:36 30.63172 -138.24785 37256 ft 526 kts 72°
2026-04-23 00:37 30.65641 -138.16783 37239 ft 526 kts 71°
2026-04-23 00:37 30.68104 -138.08779 37243 ft 526 kts 72°
2026-04-23 00:38 30.70559 -138.00783 37235 ft 526 kts 72°
2026-04-23 00:38 30.73011 -137.92778 37255 ft 525 kts 72°
2026-04-23 00:39 30.75458 -137.84767 37243 ft 525 kts 72°
2026-04-23 00:39 30.77882 -137.76812 37236 ft 525 kts 72°
2026-04-23 00:40 30.80314 -137.68811 37247 ft 524 kts 72°
2026-04-23 00:40 30.82740 -137.60811 37246 ft 524 kts 72°
2026-04-23 00:41 30.85161 -137.52804 37247 ft 524 kts 72°
2026-04-23 00:41 30.87578 -137.44794 37248 ft 524 kts 72°
2026-04-23 00:42 30.89987 -137.36787 37248 ft 524 kts 72°
2026-04-23 00:42 30.92391 -137.28774 37252 ft 524 kts 72°
2026-04-23 00:43 30.94791 -137.20759 37254 ft 524 kts 72°
2026-04-23 00:43 30.97175 -137.12774 37252 ft 524 kts 72°
2026-04-23 00:44 30.99569 -137.04735 37258 ft 525 kts 72°
2026-04-23 00:44 31.01957 -136.96697 37240 ft 525 kts 72°
2026-04-23 00:45 31.04342 -136.88647 37253 ft 525 kts 72°
2026-04-23 00:45 31.06722 -136.80592 37253 ft 525 kts 72°
2026-04-23 00:46 31.09096 -136.72540 37251 ft 525 kts 72°
2026-04-23 00:46 31.11467 -136.64475 37250 ft 525 kts 72°
2026-04-23 00:47 31.13814 -136.56469 37235 ft 525 kts 72°
2026-04-23 00:47 31.16173 -136.48403 37265 ft 524 kts 72°
2026-04-23 00:48 31.18525 -136.40338 37249 ft 524 kts 72°
2026-04-23 00:48 31.20874 -136.32264 37241 ft 524 kts 72°
2026-04-23 00:49 31.23212 -136.24206 37252 ft 523 kts 72°
2026-04-23 00:49 31.25529 -136.16200 37241 ft 524 kts 72°
2026-04-23 00:50 31.27857 -136.08132 37252 ft 523 kts 72°
2026-04-23 00:50 31.30181 -136.00059 37252 ft 523 kts 72°
2026-04-23 00:51 31.32495 -135.91997 37265 ft 523 kts 72°
2026-04-23 00:51 31.34804 -135.83932 37251 ft 523 kts 72°
2026-04-23 00:52 31.37112 -135.75851 37241 ft 523 kts 72°
2026-04-23 00:52 31.39411 -135.67778 37258 ft 522 kts 72°
2026-04-23 00:53 31.41689 -135.59756 37256 ft 522 kts 72°
2026-04-23 00:53 31.43978 -135.51674 37251 ft 522 kts 72°
2026-04-23 00:54 31.46259 -135.43601 37261 ft 522 kts 72°
2026-04-23 00:54 31.48534 -135.35524 37261 ft 521 kts 72°
2026-04-23 00:55 31.50805 -135.27443 37255 ft 521 kts 72°
2026-04-23 00:55 31.53052 -135.19422 37258 ft 521 kts 72°
2026-04-23 00:56 31.55305 -135.11358 37272 ft 520 kts 72°
2026-04-23 00:56 31.57553 -135.03292 37265 ft 520 kts 72°
2026-04-23 00:57 31.59795 -134.95225 37258 ft 520 kts 72°
2026-04-23 00:57 31.62032 -134.87156 37260 ft 520 kts 72°
2026-04-23 00:58 31.64261 -134.79088 37264 ft 519 kts 72°
2026-04-23 00:58 31.66487 -134.71013 37265 ft 519 kts 72°
2026-04-23 00:59 31.68694 -134.62985 37264 ft 519 kts 72°
2026-04-23 00:59 31.70908 -134.54908 37268 ft 519 kts 72°
2026-04-23 01:00 31.73115 -134.46833 37260 ft 519 kts 72°
2026-04-23 01:00 31.75315 -134.38762 37280 ft 518 kts 72°
2026-04-23 01:01 31.77508 -134.30694 37261 ft 518 kts 72°
2026-04-23 01:01 31.79686 -134.22660 37260 ft 518 kts 72°
2026-04-23 01:02 31.81865 -134.14598 37276 ft 517 kts 72°
2026-04-23 01:02 31.84040 -134.06527 37270 ft 517 kts 72°
2026-04-23 01:03 31.86212 -133.98447 37270 ft 517 kts 72°
2026-04-23 01:03 31.88372 -133.90390 37273 ft 516 kts 72°
2026-04-23 01:04 31.90527 -133.82325 37275 ft 516 kts 72°
2026-04-23 01:04 31.93740 -133.70262 37272 ft 516 kts 72°
2026-04-23 01:05 31.95884 -133.62186 37280 ft 517 kts 72°
2026-04-23 01:05 31.98025 -133.54095 37275 ft 517 kts 72°
2026-04-23 01:06 32.00159 -133.46006 37275 ft 517 kts 72°
2026-04-23 01:06 32.02277 -133.37958 37278 ft 517 kts 72°
2026-04-23 01:07 32.04402 -133.29858 37274 ft 517 kts 72°
2026-04-23 01:07 32.06521 -133.21757 37279 ft 517 kts 72°
2026-04-23 01:08 32.08640 -133.13635 37276 ft 517 kts 72°
2026-04-23 01:08 32.10750 -133.05522 37279 ft 517 kts 73°
2026-04-23 01:09 32.12855 -132.97405 37277 ft 517 kts 73°
2026-04-23 01:09 32.14958 -132.89274 37278 ft 518 kts 73°
2026-04-23 01:10 32.17283 -132.81286 37276 ft 517 kts 65°
2026-04-23 01:10 32.20555 -132.73728 37285 ft 516 kts 60°
2026-04-23 01:11 32.23953 -132.66245 37280 ft 516 kts 61°
2026-04-23 01:11 32.26750 -132.60017 37278 ft 517 kts 61°
2026-04-23 01:12 32.30627 -132.51266 37283 ft 517 kts 61°
2026-04-23 01:12 32.33948 -132.43721 37283 ft 517 kts 61°
2026-04-23 01:13 32.36703 -132.37451 37281 ft 516 kts 61°
2026-04-23 01:13 32.40039 -132.29849 37626 ft 518 kts 61°
2026-04-23 01:14 32.41672 -132.26123 38042 ft 515 kts 61°
2026-04-23 01:14 32.43312 -132.22376 38474 ft 512 kts 62°
2026-04-23 01:14 32.44946 -132.18642 38851 ft 509 kts 62°
2026-04-23 01:14 32.46572 -132.14921 39140 ft 508 kts 62°
2026-04-23 01:15 32.49819 -132.07479 39256 ft 504 kts 62°
2026-04-23 01:15 32.53009 -132.00151 39286 ft 498 kts 62°
2026-04-23 01:16 32.56176 -131.92862 39292 ft 497 kts 62°
2026-04-23 01:16 32.59318 -131.85619 39289 ft 497 kts 62°
2026-04-23 01:17 32.62481 -131.78310 39293 ft 497 kts 62°
2026-04-23 01:17 32.65639 -131.70997 39301 ft 498 kts 62°
2026-04-23 01:18 32.68798 -131.63668 39296 ft 499 kts 62°
2026-04-23 01:18 32.71962 -131.56312 39295 ft 500 kts 62°
2026-04-23 01:19 32.75121 -131.48951 39298 ft 501 kts 62°
2026-04-23 01:19 32.78282 -131.41572 39295 ft 501 kts 62°
2026-04-23 01:20 32.81420 -131.34230 39295 ft 501 kts 62°
2026-04-23 01:20 32.84582 -131.26817 39293 ft 501 kts 62°
2026-04-23 01:21 32.87739 -131.19400 39288 ft 501 kts 62°
2026-04-23 01:21 32.90859 -131.12054 39290 ft 501 kts 62°
2026-04-23 01:22 32.93997 -131.04650 39289 ft 500 kts 62°
2026-04-23 01:22 32.97133 -130.97237 39297 ft 500 kts 62°
2026-04-23 01:23 33.00257 -130.89837 39298 ft 500 kts 62°
2026-04-23 01:23 33.03380 -130.82421 39293 ft 500 kts 62°
2026-04-23 01:24 33.06483 -130.75038 39303 ft 501 kts 62°
2026-04-23 01:24 33.09612 -130.67579 39299 ft 501 kts 62°
2026-04-23 01:25 33.12728 -130.60132 39304 ft 502 kts 62°
2026-04-23 01:25 33.15843 -130.52674 39292 ft 502 kts 62°
2026-04-23 01:26 33.18954 -130.45210 39308 ft 503 kts 62°
2026-04-23 01:26 33.22063 -130.37734 39302 ft 503 kts 62°
2026-04-23 01:27 33.25157 -130.30277 39293 ft 503 kts 62°
2026-04-23 01:27 33.28262 -130.22778 39294 ft 504 kts 62°
2026-04-23 01:28 33.31372 -130.15253 39295 ft 504 kts 62°
2026-04-23 01:28 33.34461 -130.07760 39298 ft 504 kts 62°
2026-04-23 01:29 33.37564 -130.00217 39292 ft 505 kts 62°
2026-04-23 01:29 33.40661 -129.92672 39306 ft 505 kts 62°
2026-04-23 01:30 33.43767 -129.85088 39294 ft 506 kts 63°
2026-04-23 01:30 33.46841 -129.77567 39297 ft 506 kts 62°
2026-04-23 01:31 33.49938 -129.69973 39297 ft 507 kts 63°
2026-04-23 01:31 33.53037 -129.62357 39294 ft 508 kts 63°
2026-04-23 01:32 33.56132 -129.54731 39295 ft 508 kts 63°
2026-04-23 01:32 33.59206 -129.47144 39294 ft 509 kts 63°
2026-04-23 01:33 33.62297 -129.39497 39295 ft 510 kts 63°
2026-04-23 01:33 33.65389 -129.31828 39295 ft 510 kts 63°
2026-04-23 01:34 33.68481 -129.24144 39294 ft 511 kts 63°
2026-04-23 01:34 33.71569 -129.16451 39295 ft 512 kts 63°
2026-04-23 01:35 33.74663 -129.08725 39297 ft 513 kts 63°
2026-04-23 01:35 33.77736 -129.01038 39293 ft 513 kts 63°
2026-04-23 01:36 33.80829 -128.93278 39294 ft 514 kts 63°
2026-04-23 01:36 33.83921 -128.85506 39300 ft 515 kts 63°
2026-04-23 01:37 33.86248 -128.77357 39300 ft 516 kts 78°
2026-04-23 01:37 33.87113 -128.68837 39293 ft 516 kts 89°
2026-04-23 01:38 33.87294 -128.60196 39297 ft 517 kts 90°
2026-04-23 01:38 33.87452 -128.51512 39296 ft 518 kts 89°
2026-04-23 01:39 33.87651 -128.42835 39296 ft 519 kts 89°
2026-04-23 01:39 33.87871 -128.34143 39292 ft 520 kts 89°
2026-04-23 01:40 33.88091 -128.25441 39290 ft 520 kts 89°
2026-04-23 01:40 33.88302 -128.16733 39291 ft 521 kts 89°
2026-04-23 01:41 33.88504 -128.08076 39271 ft 521 kts 90°
2026-04-23 01:41 33.88700 -127.99362 39287 ft 520 kts 90°
2026-04-23 01:42 33.88890 -127.90661 39292 ft 520 kts 90°
2026-04-23 01:42 33.89074 -127.81944 39293 ft 520 kts 90°
2026-04-23 01:43 33.89252 -127.73235 39286 ft 520 kts 90°
2026-04-23 01:43 33.89422 -127.64586 39285 ft 521 kts 90°
2026-04-23 01:44 33.89588 -127.55860 39289 ft 522 kts 90°
2026-04-23 01:44 33.89748 -127.47115 39268 ft 522 kts 90°
2026-04-23 01:45 33.89903 -127.38363 39285 ft 523 kts 90°
2026-04-23 01:45 33.90051 -127.29588 39290 ft 524 kts 90°
2026-04-23 01:46 33.90192 -127.20872 39291 ft 525 kts 90°
2026-04-23 01:46 33.90328 -127.12074 39291 ft 526 kts 91°
2026-04-23 01:47 33.90458 -127.03257 39288 ft 526 kts 91°
2026-04-23 01:47 33.90582 -126.94482 39287 ft 527 kts 91°
2026-04-23 01:48 33.90700 -126.85647 39289 ft 528 kts 91°
2026-04-23 01:48 33.90811 -126.76807 39276 ft 528 kts 91°
2026-04-23 01:49 33.90917 -126.67960 39288 ft 529 kts 91°
2026-04-23 01:49 33.91016 -126.59091 39284 ft 530 kts 91°
2026-04-23 01:50 33.91109 -126.50264 39283 ft 530 kts 91°
2026-04-23 01:50 33.91195 -126.41371 39290 ft 532 kts 91°
2026-04-23 01:51 33.91276 -126.32467 39283 ft 532 kts 91°
2026-04-23 01:51 33.91350 -126.23555 39283 ft 532 kts 91°
2026-04-23 01:52 33.91419 -126.14613 39276 ft 534 kts 92°
2026-04-23 01:52 33.91480 -126.05657 39287 ft 536 kts 92°
2026-04-23 01:53 33.91535 -125.96664 39286 ft 538 kts 92°
2026-04-23 01:53 33.91584 -125.87642 39284 ft 540 kts 92°
2026-04-23 01:54 33.91627 -125.78593 39279 ft 541 kts 92°
2026-04-23 01:54 33.91663 -125.69586 39282 ft 541 kts 92°
2026-04-23 01:55 33.91693 -125.60528 39276 ft 541 kts 92°
2026-04-23 01:55 33.91716 -125.51477 39263 ft 541 kts 93°
2026-04-23 01:56 33.91731 -125.42410 39281 ft 542 kts 92°
2026-04-23 01:56 33.91741 -125.33320 39277 ft 544 kts 92°
2026-04-23 01:57 33.91743 -125.24196 39284 ft 545 kts 92°
2026-04-23 01:57 33.91740 -125.15099 39274 ft 546 kts 92°
2026-04-23 01:58 33.91730 -125.05952 39269 ft 546 kts 92°
2026-04-23 01:58 33.91716 -124.96799 39267 ft 546 kts 91°
2026-04-23 01:59 33.92375 -124.87669 39236 ft 550 kts 80°
2026-04-23 01:59 33.94076 -124.78649 39277 ft 558 kts 77°
2026-04-23 02:00 33.95878 -124.69516 39283 ft 563 kts 77°
2026-04-23 02:00 33.97639 -124.60309 39276 ft 564 kts 78°
2026-04-23 02:01 33.99066 -124.52663 39255 ft 563 kts 78°
2026-04-23 02:01 34.00771 -124.43451 39264 ft 560 kts 78°
2026-04-23 02:02 34.02461 -124.34298 39251 ft 558 kts 78°
2026-04-23 02:02 34.04142 -124.25172 39249 ft 556 kts 78°
2026-04-23 02:03 34.05800 -124.16139 39263 ft 554 kts 78°
2026-04-23 02:03 34.07455 -124.07078 39249 ft 553 kts 78°
2026-04-23 02:04 34.09101 -123.98025 39249 ft 552 kts 78°
2026-04-23 02:04 34.10741 -123.88962 39257 ft 552 kts 78°
2026-04-23 02:05 34.12374 -123.79906 39250 ft 553 kts 78°
2026-04-23 02:05 34.14002 -123.70830 39248 ft 554 kts 78°
2026-04-23 02:06 34.15627 -123.61730 39255 ft 555 kts 78°
2026-04-23 02:06 34.17247 -123.52621 39243 ft 556 kts 78°
2026-04-23 02:07 34.18863 -123.43491 39245 ft 556 kts 78°
2026-04-23 02:07 34.20472 -123.34357 39238 ft 556 kts 78°
2026-04-23 02:08 34.22065 -123.25271 39196 ft 556 kts 78°
2026-04-23 02:08 34.23667 -123.16103 39232 ft 558 kts 78°
2026-04-23 02:09 34.24714 -123.06798 39245 ft 560 kts 89°
2026-04-23 02:09 34.24522 -122.97405 39246 ft 560 kts 96°
2026-04-23 02:10 34.24017 -122.87985 39242 ft 562 kts 96°
2026-04-23 02:10 34.23539 -122.78527 39234 ft 564 kts 96°
2026-04-23 02:11 34.23100 -122.69061 39222 ft 564 kts 96°
2026-04-23 02:11 34.22670 -122.59656 39248 ft 562 kts 96°
2026-04-23 02:12 34.22230 -122.50246 39176 ft 561 kts 96°
2026-04-23 02:12 34.21778 -122.40847 39215 ft 560 kts 96°
2026-04-23 02:13 34.21316 -122.31423 39229 ft 562 kts 96°
2026-04-23 02:13 34.20847 -122.21979 39223 ft 563 kts 96°
2026-04-23 02:14 34.20371 -122.12544 39218 ft 565 kts 96°
2026-04-23 02:14 34.19887 -122.03079 39228 ft 566 kts 96°
2026-04-23 02:15 34.19144 -121.88827 39212 ft 566 kts 96°
2026-04-23 02:16 34.18643 -121.79391 39210 ft 566 kts 96°
2026-04-23 02:16 34.18131 -121.69891 39206 ft 567 kts 96°
2026-04-23 02:17 34.17610 -121.60376 39203 ft 568 kts 96°
2026-04-23 02:17 34.17082 -121.50840 39199 ft 567 kts 96°
2026-04-23 02:17 34.16816 -121.46095 39027 ft 565 kts 96°
2026-04-23 02:18 34.16549 -121.41347 38397 ft 566 kts 96°
2026-04-23 02:18 34.16279 -121.36610 37736 ft 565 kts 96°
2026-04-23 02:18 34.16009 -121.31888 37088 ft 563 kts 96°
2026-04-23 02:18 34.15737 -121.27168 36413 ft 562 kts 96°
2026-04-23 02:19 34.15468 -121.22528 35744 ft 561 kts 96°
2026-04-23 02:19 34.15194 -121.17837 34930 ft 562 kts 95°
2026-04-23 02:19 34.14914 -121.13066 34059 ft 564 kts 95°
2026-04-23 02:19 34.14635 -121.08338 33078 ft 565 kts 95°
2026-04-23 02:20 34.14358 -121.03673 32146 ft 564 kts 95°
2026-04-23 02:20 34.14077 -120.98952 31189 ft 565 kts 95°
2026-04-23 02:20 34.13996 -120.94220 30186 ft 564 kts 87°
2026-04-23 02:20 34.14312 -120.89495 29327 ft 560 kts 83°
2026-04-23 02:21 34.14782 -120.84861 28671 ft 551 kts 81°
2026-04-23 02:21 34.15275 -120.80302 28034 ft 545 kts 81°
2026-04-23 02:21 34.15735 -120.75754 27411 ft 539 kts 82°
2026-04-23 02:21 34.16142 -120.71286 26783 ft 533 kts 83°
2026-04-23 02:22 34.16508 -120.66848 26167 ft 528 kts 83°
2026-04-23 02:22 34.16850 -120.62464 25561 ft 522 kts 83°
2026-04-23 02:22 34.17177 -120.58180 24972 ft 518 kts 83°
2026-04-23 02:22 34.17506 -120.53862 24373 ft 514 kts 83°
2026-04-23 02:23 34.17837 -120.49573 23755 ft 510 kts 83°
2026-04-23 02:23 34.18167 -120.45317 23054 ft 507 kts 83°
2026-04-23 02:23 34.18494 -120.41096 22420 ft 502 kts 83°
2026-04-23 02:23 34.18817 -120.36917 21815 ft 496 kts 83°
2026-04-23 02:24 34.19134 -120.32781 21219 ft 492 kts 83°
2026-04-23 02:24 34.19404 -120.28707 20984 ft 479 kts 85°
2026-04-23 02:24 34.19558 -120.24720 20811 ft 474 kts 86°
2026-04-23 02:24 34.19673 -120.20725 20638 ft 479 kts 87°
2026-04-23 02:25 34.19792 -120.16727 20448 ft 483 kts 86°
2026-04-23 02:25 34.19929 -120.12712 20281 ft 472 kts 86°
2026-04-23 02:25 34.20074 -120.08788 20123 ft 459 kts 86°
2026-04-23 02:25 34.20200 -120.04985 19860 ft 448 kts 88°
2026-04-23 02:26 34.20206 -120.01251 19540 ft 441 kts 90°
2026-04-23 02:26 34.20144 -119.97572 19210 ft 435 kts 91°
2026-04-23 02:26 34.20063 -119.93951 18909 ft 429 kts 91°
2026-04-23 02:26 34.19986 -119.90359 18612 ft 425 kts 91°
2026-04-23 02:27 34.19920 -119.86799 18324 ft 422 kts 90°
2026-04-23 02:27 34.19862 -119.83288 17987 ft 420 kts 90°
2026-04-23 02:27 34.19808 -119.79781 17675 ft 417 kts 90°
2026-04-23 02:27 34.19758 -119.76290 17372 ft 414 kts 90°
2026-04-23 02:28 34.19708 -119.72830 17080 ft 411 kts 90°
2026-04-23 02:28 34.19657 -119.69387 16786 ft 408 kts 90°
2026-04-23 02:28 34.19607 -119.65973 16501 ft 406 kts 90°
2026-04-23 02:28 34.19555 -119.62572 16216 ft 404 kts 90°
2026-04-23 02:29 34.19502 -119.59180 15931 ft 402 kts 89°
2026-04-23 02:29 34.19448 -119.55816 15668 ft 400 kts 89°
2026-04-23 02:29 34.19394 -119.52477 15398 ft 399 kts 89°
2026-04-23 02:29 34.19340 -119.49132 15117 ft 398 kts 89°
2026-04-23 02:30 34.19284 -119.45813 14833 ft 396 kts 89°
2026-04-23 02:30 34.19229 -119.42491 14558 ft 395 kts 89°
2026-04-23 02:30 34.19171 -119.39183 14266 ft 393 kts 89°
2026-04-23 02:30 34.19113 -119.35887 13998 ft 391 kts 89°
2026-04-23 02:31 34.19058 -119.32603 13655 ft 391 kts 89°
2026-04-23 02:31 34.19006 -119.29320 13306 ft 389 kts 89°
2026-04-23 02:31 34.18953 -119.26063 12963 ft 384 kts 89°
2026-04-23 02:31 34.18900 -119.22891 12652 ft 379 kts 89°
2026-04-23 02:32 34.18847 -119.19732 12329 ft 373 kts 89°
2026-04-23 02:32 34.18794 -119.16607 12007 ft 369 kts 89°
2026-04-23 02:32 34.18741 -119.13519 11683 ft 365 kts 89°
2026-04-23 02:32 34.18687 -119.10494 11389 ft 353 kts 89°
2026-04-23 02:33 34.18627 -119.07589 11085 ft 337 kts 91°
2026-04-23 02:33 34.18161 -119.04878 10923 ft 327 kts 113°
2026-04-23 02:33 34.17184 -119.02412 10908 ft 332 kts 117°
2026-04-23 02:33 34.16163 -118.99896 10810 ft 333 kts 116°
2026-04-23 02:34 34.15160 -118.97397 10720 ft 329 kts 116°
2026-04-23 02:34 34.14177 -118.94921 10641 ft 325 kts 116°
2026-04-23 02:34 34.13206 -118.92462 10570 ft 325 kts 116°
2026-04-23 02:34 34.12232 -118.89986 10481 ft 326 kts 116°
2026-04-23 02:35 34.11264 -118.87519 10384 ft 325 kts 116°
2026-04-23 02:35 34.10296 -118.85051 10298 ft 325 kts 116°
2026-04-23 02:35 34.09331 -118.82588 10234 ft 323 kts 116°
2026-04-23 02:35 34.08370 -118.80139 10144 ft 320 kts 116°
2026-04-23 02:36 34.07426 -118.77738 10049 ft 314 kts 116°
2026-04-23 02:36 34.06498 -118.75377 9952 ft 310 kts 116°
2026-04-23 02:36 34.05573 -118.73018 9684 ft 312 kts 116°
2026-04-23 02:36 34.04648 -118.70661 9441 ft 311 kts 116°
2026-04-23 02:37 34.03732 -118.68330 9174 ft 309 kts 116°
2026-04-23 02:37 34.02894 -118.65980 8897 ft 300 kts 104°
2026-04-23 02:37 34.02558 -118.63535 8707 ft 293 kts 94°
2026-04-23 02:37 34.02388 -118.61103 8492 ft 290 kts 94°
2026-04-23 02:38 34.02204 -118.58683 8275 ft 288 kts 94°
2026-04-23 02:38 34.01997 -118.56287 8047 ft 286 kts 95°
2026-04-23 02:38 34.01784 -118.53904 7828 ft 284 kts 95°
2026-04-23 02:38 34.01569 -118.51568 7598 ft 281 kts 95°
2026-04-23 02:39 34.01350 -118.49242 7353 ft 277 kts 95°
2026-04-23 02:39 34.01134 -118.46952 7117 ft 274 kts 95°
2026-04-23 02:39 34.01095 -118.44709 6905 ft 261 kts 79°
2026-04-23 02:39 34.01448 -118.42611 6727 ft 255 kts 75°
2026-04-23 02:40 34.01848 -118.40547 6511 ft 250 kts 75°
2026-04-23 02:40 34.02226 -118.38509 6258 ft 248 kts 76°
2026-04-23 02:40 34.02583 -118.36503 6120 ft 240 kts 76°
2026-04-23 02:40 34.02887 -118.34552 5776 ft 234 kts 80°
2026-04-23 02:41 34.03080 -118.32616 5393 ft 231 kts 82°
2026-04-23 02:41 34.03253 -118.30651 5190 ft 241 kts 82°
2026-04-23 02:41 34.03426 -118.28652 5206 ft 242 kts 82°
2026-04-23 02:41 34.03597 -118.26639 5176 ft 237 kts 83°
2026-04-23 02:42 34.03762 -118.24699 5000 ft 230 kts 82°
2026-04-23 02:42 34.03920 -118.22786 4748 ft 229 kts 82°
2026-04-23 02:42 34.04082 -118.20872 4519 ft 230 kts 83°
2026-04-23 02:42 34.04258 -118.18927 4325 ft 232 kts 82°
2026-04-23 02:43 34.04434 -118.16996 4130 ft 233 kts 82°
2026-04-23 02:43 34.04609 -118.15040 3861 ft 235 kts 82°
2026-04-23 02:43 34.04781 -118.13128 3666 ft 228 kts 83°
2026-04-23 02:43 34.04952 -118.11273 3601 ft 219 kts 82°
2026-04-23 02:44 34.04862 -118.09445 3584 ft 225 kts 109°
2026-04-23 02:44 34.03953 -118.07915 3603 ft 230 kts 143°
2026-04-23 02:44 34.02481 -118.07205 3600 ft 229 kts 177°
2026-04-23 02:44 34.00956 -118.07557 3580 ft 222 kts 211°
2026-04-23 02:45 33.99805 -118.08737 3596 ft 216 kts 229°
2026-04-23 02:45 33.98802 -118.10101 3598 ft 218 kts 231°
2026-04-23 02:45 33.97807 -118.11485 3595 ft 220 kts 231°
2026-04-23 02:45 33.96817 -118.12890 3577 ft 218 kts 236°
2026-04-23 02:46 33.96246 -118.14536 3593 ft 213 kts 259°
2026-04-23 02:46 33.95992 -118.16303 3599 ft 215 kts 263°
2026-04-23 02:46 33.95787 -118.18119 3394 ft 223 kts 264°
2026-04-23 02:46 33.95600 -118.19945 3099 ft 218 kts 264°
2026-04-23 02:47 33.95422 -118.21700 2817 ft 205 kts 265°
2026-04-23 02:47 33.95255 -118.23346 2544 ft 190 kts 264°
2026-04-23 02:47 33.95101 -118.24866 2312 ft 178 kts 263°
2026-04-23 02:47 33.95004 -118.25824 2158 ft 169 kts 264°
2026-04-23 02:48 33.94867 -118.27162 1965 ft 154 kts 264°
2026-04-23 02:48 33.94736 -118.28453 1776 ft 156 kts 264°
2026-04-23 02:48 33.94605 -118.29740 1550 ft 150 kts 263°
2026-04-23 02:48 33.94484 -118.30933 1355 ft 138 kts 263°
2026-04-23 02:49 33.94374 -118.32055 1133 ft 135 kts 262°
2026-04-23 02:49 33.94257 -118.33185 999 ft 134 kts 263°
2026-04-23 02:49 33.94137 -118.34307 786 ft 136 kts 263°
2026-04-23 02:49 33.94017 -118.35414 595 ft 131 kts 265°
2026-04-23 02:50 33.93910 -118.36532 403 ft 136 kts 265°
2026-04-23 02:50 33.93801 -118.37620 253 ft 127 kts 263°
2026-04-23 02:50 33.93701 -118.38665 106 ft 125 kts 263°
2026-04-23 02:50 33.93604 -118.39576 99 ft 86 kts 263°
2026-04-23 02:51 33.93560 -118.40068 101 ft 43 kts 271°
2026-04-23 02:51 33.93616 -118.40344 101 ft 19 kts 283°
2026-04-23 02:51 33.93618 -118.40505 100 ft 19 kts 264°
2026-04-23 02:51 33.93603 -118.40660 99 ft 18 kts 263°
2026-04-23 02:52 33.93594 -118.40751 100 ft 10 kts 263°
2026-04-23 02:52 33.93586 -118.40833 98 ft 10 kts 263°
2026-04-23 02:52 33.93577 -118.40917 102 ft 10 kts 263°
2026-04-23 02:52 33.93568 -118.41001 99 ft 10 kts 263°
2026-04-23 02:53 33.93560 -118.41085 99 ft 10 kts 263°
2026-04-23 02:53 33.93560 -118.41167 99 ft 6 kts 277°
2026-04-23 02:53 33.93561 -118.41176 99 ft 0 kts 278°
2026-04-23 02:54 33.93563 -118.41191 102 ft 7 kts 279°
2026-04-23 02:54 33.93628 -118.41261 101 ft 17 kts 343°
2026-04-23 02:54 33.93726 -118.41261 101 ft 10 kts 38°
2026-04-23 02:55 33.93733 -118.41250 103 ft 2 kts 53°
2026-04-23 02:55 33.93745 -118.41221 102 ft 5 kts 69°
2026-04-23 02:55 33.93747 -118.41216 102 ft 0 kts 69°
2026-04-23 02:55 33.93748 -118.41213 102 ft 2 kts 70°
2026-04-23 02:56 33.93760 -118.41154 99 ft 15 kts 79°
2026-04-23 02:56 33.93779 -118.40978 98 ft 23 kts 83°
2026-04-23 02:56 33.93797 -118.40788 102 ft 23 kts 83°
2026-04-23 02:56 33.93817 -118.40596 100 ft 23 kts 83°
2026-04-23 02:57 33.93836 -118.40412 101 ft 22 kts 84°
2026-04-23 02:57 33.93855 -118.40227 102 ft 22 kts 83°
2026-04-23 02:57 33.93871 -118.40070 102 ft 16 kts 83°
2026-04-23 02:57 33.93886 -118.39933 101 ft 16 kts 83°
2026-04-23 02:58 33.93899 -118.39836 103 ft 10 kts 63°
2026-04-23 02:58 33.93941 -118.39813 101 ft 4 kts 359°
2026-04-23 02:58 33.93967 -118.39830 100 ft 5 kts 325°
2026-04-23 02:58 33.93996 -118.39858 101 ft 3 kts 321°
2026-04-23 02:59 33.94007 -118.39869 98 ft 2 kts 317°
2026-04-23 02:59 33.94019 -118.39878 98 ft 0 kts 329°
2026-04-23 02:59 33.94023 -118.39881 98 ft 1 kts 328°
2026-04-23 02:59 33.94029 -118.39885 101 ft 0 kts 327°
2026-04-23 03:00 33.94030 -118.39886 98 ft 0 kts 327°
2026-04-23 03:00 33.94025 -118.39903 98 ft 0 kts 353°
2026-04-23 03:03 33.94105 -118.39894 98 ft 0 kts 306°